Погода в Ильинском

Россия / Удмуртская Республика     56˚28′57″N   52˚47′12″E
темп.,
°C
ветер,
м/с
пор.,
м/с
влажн.,
%
обл.,
%
осадки,
мм/ч
давл.,
гПа
погр.,
м
17 января, вс
вс1701:00−12˚ююз61390100 0.1 998638
04:00−13˚юз51192100 0.1 998493
07:00−14˚юз51293100 0.1 998490
10:00−14˚зюз6119199 0.3 1001480
13:00−14˚з5991100 0.0 1004536
16:00−16˚з3794100 0.1 1008161
19:00−19˚зсз339898 0.0 101239
22:00−23˚зсз239985 0.1 101520
18 января, пн
пн1801:00−25˚зсз229818 0.0 101720
04:00−26˚зсз22979 0.0 101820
07:00−27˚юз119917 0.0 101820
10:00−26˚з119619 0.0 102019
13:00−21˚зюз12925 0.0 1020196
16:00−23˚зюз129722 0.0 101920
19:00−26˚юз1110011 0.0 101920
22:00−27˚зсз1110023 0.0 102019
19 января, вт
вт1901:00−26˚ссв119799 0.0 102019
04:00−25˚св2297100 0.0 101919
07:00−24˚св3596100 0.0 1018116
10:00−23˚св3595100 0.0 1018176
13:00−20˚св4695100 0.0 1016237
16:00−19˚ссв4895100 0.0 1015269
19:00−19˚св51093100 0.0 1014296
22:00−20˚св4991100 0.0 1014295
20 января, ср
ср2001:00−20˚св4893100 0.0 1013307
04:00−19˚св4896100 0.1 1013285
07:00−18˚св4897100 0.3 1014270
10:00−18˚св4796100 0.4 1015255
13:00−16˚св3595100 0.1 1015317
16:00−16˚св3496100 0.1 1016125
19:00−20˚всв12100100 0.1 101820
22:00−23˚всв0110090 0.1 101920
21 января, чт
чт2101:00−24˚ююз0110060 0.0 101920
04:00−24˚юз129960 0.0 102020
07:00−23˚юз3497100 0.0 101983
10:00−21˚юз4697100 0.1 1019239
13:00−19˚з4695100 0.3 1018330
16:00−18˚з3695100 0.4 1017322
19:00−18˚зюз369799 0.1 1017180
22:00−17˚зюз259698 0.3 1017139